• în Republica Moldova
  • Lista ţărilor
  • Pe 7 zile
  • Temperatura apei
  • Hartă satelitară
  • Meteo pe hartă
  • Widget-uri
  • user-avatar
    Intrare

    Meteo pe oră la Fier

    Astăzi, 22 August, Marţi

    Timp Temperatura Precipitaţii Vânt Presiune Umiditate
    00:00 +22°C° 0 mm 4 m/s 758 mmHg 68%
    01:00 +22°C° 0 mm 4 m/s 758 mmHg 67%
    02:00 +21°C° 0 mm 4 m/s 759 mmHg 67%
    03:00 +21°C° 0 mm 4 m/s 759 mmHg 67%
    04:00 +20°C° 0 mm 4 m/s 759 mmHg 66%
    05:00 +21°C° 0 mm 4 m/s 759 mmHg 62%
    06:00 +22°C° 0 mm 4 m/s 759 mmHg 57%
    07:00 +23°C° 0 mm 4 m/s 759 mmHg 53%
    08:00 +26°C° 0 mm 4 m/s 759 mmHg 47%
    09:00 +28°C° 0 mm 4 m/s 760 mmHg 41%
    10:00 +30°C° 0 mm 4 m/s 760 mmHg 36%
    11:00 +32°C° 0 mm 4 m/s 759 mmHg 33%
    12:00 +33°C° 0 mm 5 m/s 759 mmHg 30%
    13:00 +34°C° 0 mm 6 m/s 759 mmHg 27%
    14:00 +34°C° 0 mm 6 m/s 759 mmHg 27%
    15:00 +33°C° 0 mm 6 m/s 759 mmHg 27%
    16:00 +33°C° 0 mm 7 m/s 758 mmHg 27%
    17:00 +30°C° 0 mm 6 m/s 759 mmHg 35%
    18:00 +27°C° 0 mm 6 m/s 759 mmHg 42%
    19:00 +23°C° 0 mm 5 m/s 759 mmHg 50%
    20:00 +23°C° 0 mm 4 m/s 759 mmHg 51%
    21:00 +22°C° 0 mm 4 m/s 760 mmHg 52%
    22:00 +21°C° 0 mm 3 m/s 760 mmHg 54%
    23:00 +21°C° 0 mm 3 m/s 760 mmHg 50%

    Mâine, 23 August, Miercuri

    Timp Temperatura Precipitaţii Vânt Presiune Umiditate
    00:00 +21°C° 0 mm 3 m/s 760 mmHg 47%
    01:00 +21°C° 0 mm 3 m/s 760 mmHg 44%
    02:00 +20°C° 0 mm 3 m/s 760 mmHg 42%
    03:00 +20°C° 0 mm 2 m/s 760 mmHg 40%
    04:00 +20°C° 0 mm 2 m/s 760 mmHg 38%
    05:00 +23°C° 0 mm 2 m/s 760 mmHg 36%
    06:00 +24°C° 0 mm 2 m/s 760 mmHg 34%
    07:00 +26°C° 0 mm 2 m/s 761 mmHg 32%
    08:00 +28°C° 0 mm 2 m/s 761 mmHg 30%
    09:00 +30°C° 0 mm 2 m/s 761 mmHg 28%
    10:00 +32°C° 0 mm 2 m/s 761 mmHg 26%
    11:00 +34°C° 0 mm 3 m/s 761 mmHg 25%
    12:00 +34°C° 0 mm 3 m/s 761 mmHg 24%
    13:00 +35°C° 0 mm 4 m/s 761 mmHg 23%
    14:00 +34°C° 0 mm 5 m/s 760 mmHg 24%
    15:00 +34°C° 0 mm 5 m/s 760 mmHg 24%
    16:00 +33°C° 0 mm 5 m/s 760 mmHg 25%
    17:00 +30°C° 0 mm 4 m/s 760 mmHg 31%
    18:00 +27°C° 0 mm 4 m/s 761 mmHg 37%
    19:00 +25°C° 0 mm 3 m/s 761 mmHg 43%
    20:00 +24°C° 0 mm 3 m/s 761 mmHg 43%
    21:00 +24°C° 0 mm 2 m/s 762 mmHg 44%
    22:00 +23°C° 0 mm 2 m/s 762 mmHg 44%
    23:00 +23°C° 0 mm 2 m/s 762 mmHg 43%

    Poimâine, 24 August, Joi

    Timp Temperatura Precipitaţii Vânt Presiune Umiditate
    00:00 +23°C° 0 mm 2 m/s 762 mmHg 43%
    01:00 +23°C° 0 mm 2 m/s 762 mmHg 42%
    02:00 +21°C° 0 mm 2 m/s 762 mmHg 41%
    03:00 +21°C° 0 mm 2 m/s 762 mmHg 41%
    04:00 +21°C° 0 mm 2 m/s 762 mmHg 40%
    05:00 +24°C° 0 mm 2 m/s 762 mmHg 38%
    06:00 +25°C° 0 mm 2 m/s 762 mmHg 36%
    07:00 +27°C° 0 mm 2 m/s 762 mmHg 33%
    08:00 +29°C° 0 mm 2 m/s 762 mmHg 30%
    09:00 +32°C° 0 mm 2 m/s 762 mmHg 26%
    10:00 +35°C° 0 mm 2 m/s 762 mmHg 23%
    11:00 +36°C° 0 mm 3 m/s 762 mmHg 22%
    12:00 +36°C° 0 mm 3 m/s 762 mmHg 21%
    13:00 +37°C° 0 mm 4 m/s 762 mmHg 20%
    14:00 +36°C° 0 mm 5 m/s 762 mmHg 21%
    15:00 +36°C° 0 mm 5 m/s 761 mmHg 22%
    16:00 +35°C° 0 mm 5 m/s 761 mmHg 23%
    17:00 +33°C° 0 mm 4 m/s 761 mmHg 28%
    18:00 +29°C° 0 mm 4 m/s 762 mmHg 34%
    19:00 +26°C° 0 mm 3 m/s 762 mmHg 40%
    20:00 +26°C° 0 mm 3 m/s 762 mmHg 40%
    21:00 +26°C° 0 mm 2 m/s 762 mmHg 39%
    22:00 +25°C° 0 mm 2 m/s 763 mmHg 39%
    23:00 +25°C° 0 mm 2 m/s 762 mmHg 38%

    25 August, Vineri

    Timp Temperatura Precipitaţii Vânt Presiune Umiditate
    00:00 +25°C° 0 mm 2 m/s 762 mmHg 37%
    01:00 +25°C° 0 mm 2 m/s 762 mmHg 36%
    02:00 +25°C° 0 mm 2 m/s 762 mmHg 36%
    03:00 +24°C° 0 mm 2 m/s 762 mmHg 36%
    04:00 +24°C° 0 mm 2 m/s 762 mmHg 35%
    05:00 +26°C° 0 mm 2 m/s 762 mmHg 34%
    06:00 +27°C° 0 mm 2 m/s 762 mmHg 33%
    07:00 +29°C° 0 mm 2 m/s 763 mmHg 31%
    08:00 +31°C° 0 mm 2 m/s 763 mmHg 28%
    09:00 +34°C° 0 mm 2 m/s 763 mmHg 24%
    10:00 +36°C° 0 mm 1 m/s 763 mmHg 21%
    11:00 +37°C° 0 mm 2 m/s 762 mmHg 20%
    12:00 +38°C° 0 mm 3 m/s 762 mmHg 19%
    13:00 +40°C° 0 mm 4 m/s 761 mmHg 19%
    14:00 +38°C° 0 mm 4 m/s 761 mmHg 20%
    15:00 +38°C° 0 mm 4 m/s 761 mmHg 21%
    16:00 +37°C° 0 mm 4 m/s 761 mmHg 22%
    17:00 +35°C° 0 mm 3 m/s 761 mmHg 28%
    18:00 +31°C° 0 mm 3 m/s 761 mmHg 33%
    19:00 +28°C° 0 mm 2 m/s 761 mmHg 39%
    20:00 +27°C° 0 mm 2 m/s 761 mmHg 39%
    21:00 +27°C° 0 mm 2 m/s 761 mmHg 39%
    22:00 +27°C° 0 mm 2 m/s 762 mmHg 40%
    23:00 +26°C° 0 mm 2 m/s 762 mmHg 39%

    26 August, Sâmbătă

    Timp Temperatura Precipitaţii Vânt Presiune Umiditate
    00:00 +26°C° 0 mm 2 m/s 761 mmHg 38%
    01:00 +26°C° 0 mm 1 m/s 761 mmHg 38%
    02:00 +25°C° 0 mm 2 m/s 761 mmHg 38%
    03:00 +25°C° 0 mm 2 m/s 761 mmHg 38%
    04:00 +24°C° 0 mm 2 m/s 761 mmHg 39%
    05:00 +26°C° 0 mm 2 m/s 761 mmHg 37%
    06:00 +27°C° 0 mm 2 m/s 761 mmHg 35%
    07:00 +29°C° 0 mm 2 m/s 761 mmHg 34%
    08:00 +31°C° 0 mm 1 m/s 761 mmHg 29%
    09:00 +34°C° 0 mm 1 m/s 761 mmHg 24%
    10:00 +36°C° 0 mm 1 m/s 761 mmHg 20%
    11:00 +38°C° 0 mm 2 m/s 761 mmHg 19%
    12:00 +39°C° 0 mm 3 m/s 760 mmHg 18%
    13:00 +39°C° 0 mm 3 m/s 760 mmHg 17%
    14:00 +40°C° 0 mm 4 m/s 760 mmHg 18%
    15:00 +38°C° 0 mm 4 m/s 759 mmHg 20%
    16:00 +38°C° 0 mm 4 m/s 759 mmHg 21%
    17:00 +35°C° 0 mm 3 m/s 759 mmHg 27%
    18:00 +31°C° 0 mm 2 m/s 760 mmHg 33%
    19:00 +28°C° 0 mm 2 m/s 760 mmHg 39%
    20:00 +27°C° 0 mm 2 m/s 760 mmHg 39%
    21:00 +27°C° 0 mm 2 m/s 760 mmHg 39%
    22:00 +27°C° 0 mm 1 m/s 760 mmHg 38%
    23:00 +26°C° 0 mm 1 m/s 760 mmHg 38%

    27 August, Duminică

    Timp Temperatura Precipitaţii Vânt Presiune Umiditate
    00:00 +26°C° 0 mm 1 m/s 760 mmHg 37%
    01:00 +26°C° 0 mm 1 m/s 760 mmHg 37%
    02:00 +26°C° 0 mm 1 m/s 760 mmHg 37%
    03:00 +25°C° 0 mm 1 m/s 760 mmHg 38%
    04:00 +25°C° 0 mm 2 m/s 760 mmHg 38%
    05:00 +26°C° 0 mm 2 m/s 760 mmHg 37%
    06:00 +28°C° 0 mm 1 m/s 760 mmHg 35%
    07:00 +29°C° 0 mm 1 m/s 760 mmHg 33%
    08:00 +32°C° 0 mm 1 m/s 760 mmHg 29%
    09:00 +35°C° 0 mm 1 m/s 760 mmHg 24%
    10:00 +37°C° 0 mm 1 m/s 760 mmHg 19%
    11:00 +39°C° 0 mm 2 m/s 759 mmHg 18%
    12:00 +39°C° 0 mm 3 m/s 759 mmHg 17%
    13:00 +41°C° 0 mm 4 m/s 759 mmHg 16%
    14:00 +40°C° 0 mm 4 m/s 758 mmHg 18%
    15:00 +40°C° 0 mm 4 m/s 758 mmHg 19%
    16:00 +38°C° 0 mm 4 m/s 758 mmHg 21%
    17:00 +35°C° 0 mm 3 m/s 758 mmHg 26%
    18:00 +31°C° 0 mm 3 m/s 758 mmHg 32%
    19:00 +28°C° 0 mm 2 m/s 758 mmHg 38%
    20:00 +28°C° 0 mm 2 m/s 759 mmHg 37%
    21:00 +27°C° 0 mm 2 m/s 759 mmHg 36%
    22:00 +27°C° 0 mm 1 m/s 759 mmHg 35%
    23:00 +27°C° 0 mm 1 m/s 759 mmHg 35%
    Arată mai mult